Latest Weather Observations for Cabramurra

IDN60801

Issued at 10:35 pm EST Tuesday 29 July 2014 (issued every 30 minutes, with the page automatically refreshed every 10 minutes)

About weather observations | Map of weather stations | Latest weather observations for NSW | Other Formats
Station Details ID: 072161 Name: CABRAMURRA SMHEA AWS Lat: -35.94 Lon: 148.38 Height: 1482.4 m
Data from the previous 72 hours. | See also: Recent months at Cabramurra
Date/Time
EST
Temp
°C
App
Temp
°C
Dew
Point
Rel
Hum
%
Delta-T
°C
Wind Press
QNH
hPa
Press
MSL
hPa
Rain
since 9 am
mm
Dir
 
Spd
km/h
Gust
km/h
Spd
kts
Gust
kts
29/10:30pm 3.6 -6.4 2.1 90 0.7 W 44 76 24 41 - - 0.0
29/10:00pm 3.7 -6.9 0.9 82 1.2 W 46 80 25 43 - - 0.0
29/09:30pm 3.5 -6.1 0.9 83 1.1 W 41 65 22 35 - - 0.0
29/09:00pm 3.6 -5.7 0.7 81 1.2 W 39 63 21 34 - - 0.0
29/08:35pm 3.6 -6.1 0.8 82 1.2 W 41 59 22 32 - - 0.0
29/08:30pm 3.6 -6.4 1.0 83 1.1 W 43 59 23 32 - - 0.0
29/08:00pm 3.6 -6.0 1.2 84 1.0 WNW 41 57 22 31 - - 0.0
29/07:59pm 3.6 -6.0 1.2 84 1.0 WNW 41 57 22 31 - - 0.0
29/07:30pm 3.4 -3.7 1.4 87 0.9 WNW 28 39 15 21 - - 0.0
29/07:00pm 3.2 -3.8 1.7 90 0.6 W 28 39 15 21 - - 0.0
29/06:30pm 3.2 -3.8 1.9 91 0.6 WNW 28 37 15 20 - - 0.0
29/06:16pm 3.1 -3.9 2.1 93 0.4 WNW 28 46 15 25 - - 0.0
29/06:00pm 3.1 -3.9 2.1 93 0.4 WNW 28 43 15 23 - - 0.0
29/05:55pm 3.1 -4.3 2.1 93 0.4 WNW 30 48 16 26 - - 0.0
29/05:30pm 3.1 -3.9 2.2 94 0.4 WNW 28 44 15 24 - - 0.0
29/05:00pm 3.4 -4.0 2.1 91 0.6 WNW 30 44 16 24 - - 0.0
29/04:30pm 3.5 -5.0 1.2 85 1.0 W 35 56 19 30 - - 0.0
29/04:00pm 4.1 -4.4 0.8 79 1.4 W 35 56 19 30 - - 0.0
29/03:57pm 4.1 -4.8 0.8 79 1.4 W 37 56 20 30 - - 0.0
29/03:30pm 4.7 -3.5 0.5 74 1.8 WNW 33 46 18 25 - - 0.0
29/03:00pm 4.5 -5.9 -0.5 70 2.1 W 44 63 24 34 - - 0.0
29/02:30pm 4.8 -5.1 -0.6 68 2.2 W 41 67 22 36 - - 0.0
29/02:00pm 5.0 -4.6 -1.2 64 2.5 W 39 63 21 34 - - 0.0
29/01:30pm 5.1 -5.1 -0.3 68 2.3 W 43 61 23 33 - - 0.0
29/01:25pm 5.1 -4.7 -0.3 68 2.3 WNW 41 59 22 32 - - 0.0
29/01:24pm 5.1 -5.1 -0.5 67 2.3 WNW 43 59 23 32 - - 0.0
29/01:19pm 5.2 -5.0 -0.4 67 2.3 W 43 61 23 33 - - 0.0
29/01:18pm 5.3 -4.1 -0.3 67 2.3 W 39 54 21 29 - - 0.0
29/01:00pm 5.4 -5.9 -1.1 63 2.7 WNW 48 70 26 38 - - 0.0
29/12:30pm 5.2 -4.2 -0.2 68 2.3 NW 39 63 21 34 - - 0.0
29/12:14pm 4.7 -3.5 0.3 73 1.9 WNW 33 65 18 35 - - 0.0
29/12:00pm 4.6 -2.6 0.7 76 1.7 WNW 28 46 15 25 - - 0.0
29/11:38am 4.4 -3.7 0.7 77 1.6 WNW 33 52 18 28 - - 0.0
29/11:30am 4.5 -4.4 0.5 75 1.7 WNW 37 48 20 26 - - 0.0
29/11:00am 4.1 -3.8 0.8 79 1.4 WNW 32 46 17 25 - - 0.0
29/10:30am 3.3 -2.7 1.0 85 1.0 NW 22 33 12 18 - - 0.0
29/10:00am 3.3 -2.2 0.4 81 1.2 NW 19 26 10 14 - - 0.0
29/09:30am 3.6 -1.6 0.3 79 1.4 NW 17 20 9 11 - - 0.0
29/09:00am 3.6 -0.9 0.0 77 1.5 NW 13 19 7 10 - - 0.0
29/08:30am 3.5 -1.0 -0.3 76 1.6 NW 13 20 7 11 - - 0.0
29/08:00am 3.4 -1.9 -0.6 75 1.6 NW 17 20 9 11 - - 0.0
29/07:30am 2.5 -2.9 -1.5 75 1.6 WNW 17 20 9 11 - - 0.0
29/07:00am 2.5 -3.5 -1.8 73 1.7 WNW 20 26 11 14 - - 0.0
29/06:30am 2.7 -4.1 -2.0 71 1.8 WNW 24 30 13 16 - - 0.0
29/06:00am 2.9 -4.3 -2.0 70 1.9 WNW 26 33 14 18 - - 0.0
29/05:30am 3.4 -4.5 -1.9 68 2.1 WNW 30 41 16 22 - - 0.0
29/05:25am 3.3 -4.3 -2.0 68 2.1 WNW 28 46 15 25 - - 0.0
29/05:00am 3.4 -4.9 -1.9 68 2.1 WNW 32 48 17 26 - - 0.0
29/04:30am 3.8 -5.1 -1.7 67 2.2 WNW 35 48 19 26 - - 0.0
29/04:00am 3.7 -4.7 -1.4 69 2.0 WNW 33 46 18 25 - - 0.0
29/03:30am 3.9 -4.6 -1.5 68 2.2 WNW 33 44 18 24 - - 0.0
29/03:00am 3.9 -4.5 -1.3 69 2.1 WNW 33 46 18 25 - - 0.0
29/02:30am 3.7 -4.1 -1.1 71 1.9 WNW 30 39 16 21 - - 0.0
29/02:00am 3.6 -4.6 -1.3 70 2.0 WNW 32 41 17 22 - - 0.0
29/01:30am 3.8 -4.1 -1.2 70 2.0 WNW 30 43 16 23 - - 0.0
29/01:00am 4.0 -4.4 -1.2 69 2.1 WNW 33 48 18 26 - - 0.0
29/12:30am 3.9 -4.9 -1.1 70 2.0 WNW 35 50 19 27 - - 0.0
29/12:00am 3.5 -4.9 -0.7 74 1.7 WNW 33 50 18 27 - - 0.0
 
Date/Time
EST
Temp
°C
App
Temp
°C
Dew
Point
Rel
Hum
%
Delta-T
°C
Wind Press
QNH
hPa
Press
MSL
hPa
Rain
since 9 am
mm
Dir
 
Spd
km/h
Gust
km/h
Spd
kts
Gust
kts
28/11:30pm 3.5 -4.6 0.0 78 1.4 WNW 32 44 17 24 - - 0.0
28/11:15pm 3.3 -3.9 0.4 81 1.2 WNW 28 48 15 26 - - 0.0
28/11:00pm 3.1 -3.7 0.5 83 1.1 NW 26 39 14 21 - - 0.0
28/10:30pm 3.1 -2.5 1.2 87 0.8 WNW 20 28 11 15 - - 0.0
28/10:00pm 3.0 -2.6 0.9 86 0.9 NW 20 28 11 15 - - 0.0
28/09:30pm 3.0 -3.0 0.9 86 0.9 WNW 22 33 12 18 - - 0.0
28/09:00pm 2.9 -3.1 1.0 87 0.8 WNW 22 30 12 16 - - 0.0
28/08:30pm 2.6 -3.0 1.1 90 0.6 WNW 20 30 11 16 - - 0.0
28/08:00pm 2.3 -4.0 1.6 95 0.3 WNW 24 30 13 16 - - 0.0
28/07:30pm 2.2 -5.2 1.8 97 0.2 WNW 30 41 16 22 - - 0.0
28/07:00pm 2.2 -3.8 1.3 94 0.4 WNW 22 32 12 17 - - 0.0
28/06:30pm 1.8 -3.1 1.7 99 0.0 WNW 17 22 9 12 - - 0.0
28/06:00pm 2.2 -3.4 1.3 94 0.4 WNW 20 30 11 16 - - 0.0
28/05:30pm 2.3 -3.7 1.0 91 0.5 WNW 22 30 12 16 - - 0.0
28/05:00pm 2.5 -4.3 1.0 90 0.6 WNW 26 35 14 19 - - 0.0
28/04:30pm 2.6 -4.2 1.0 89 0.7 WNW 26 37 14 20 - - 0.0
28/04:00pm 2.8 -4.4 0.9 87 0.8 WNW 28 39 15 21 - - 0.0
28/03:30pm 3.1 -4.1 0.8 85 1.0 W 28 43 15 23 - - 0.0
28/03:00pm 3.3 -3.4 1.2 86 0.9 WNW 26 41 14 22 - - 0.0
28/02:30pm 3.4 -4.0 1.9 90 0.7 W 30 43 16 23 - - 0.0
28/02:00pm 2.9 -4.0 2.6 98 0.1 WNW 28 43 15 23 - - 0.0
28/01:30pm 2.7 -3.8 2.6 99 0.0 WNW 26 35 14 19 - - 0.0
28/01:00pm 2.6 -4.7 2.2 97 0.2 WNW 30 43 16 23 - - 0.0
28/12:30pm 2.3 -3.9 2.2 99 0.0 WNW 24 35 13 19 - - 0.0
28/12:00pm 2.3 -3.9 2.2 99 0.0 WNW 24 32 13 17 - - 0.0
28/11:30am 1.8 -4.1 1.7 99 0.0 WNW 22 37 12 20 - - 0.0
28/11:00am 1.7 -5.4 1.6 99 0.0 W 28 35 15 19 - - 0.0
28/10:30am 1.5 -4.4 1.4 99 0.0 W 22 32 12 17 - - 0.0
28/10:00am 1.6 -4.7 1.5 99 0.0 WNW 24 33 13 18 - - 0.0
28/09:30am 1.6 -3.8 1.5 99 0.0 W 19 26 10 14 - - 0.0
28/09:00am 1.4 -4.0 1.3 99 0.0 W 19 26 10 14 - - 0.0
28/08:30am 1.3 -4.3 1.2 99 0.0 WNW 20 28 11 15 - - 0.0
28/08:00am 1.2 -4.4 1.1 99 0.0 W 20 32 11 17 - - 0.0
28/07:30am 0.7 -5.0 0.6 99 0.0 W 20 30 11 16 - - 0.0
28/07:00am 0.8 -4.9 0.7 99 0.0 W 20 28 11 15 - - 0.0
28/06:30am 0.5 -5.0 0.4 99 0.0 W 19 26 10 14 - - 0.0
28/06:00am 0.9 -5.5 0.8 99 0.0 WSW 24 41 13 22 - - 0.0
28/05:30am 0.9 -5.5 0.8 99 0.0 WSW 24 35 13 19 - - 0.0
28/05:00am 1.2 -4.9 0.6 96 0.2 W 22 32 12 17 - - 0.0
28/04:30am 1.4 -5.1 0.5 94 0.4 WSW 24 33 13 18 - - 0.0
28/04:00am 1.3 -5.2 0.4 94 0.4 WSW 24 35 13 19 - - 0.0
28/03:30am 1.0 -5.8 0.6 97 0.2 WSW 26 35 14 19 - - 0.0
28/03:00am 0.7 -6.1 0.6 99 0.0 WSW 26 35 14 19 - - 0.0
28/02:30am 0.5 -5.2 0.4 99 0.0 WSW 20 30 11 16 - - 0.0
28/02:00am 0.4 -5.3 0.3 99 0.0 WSW 20 28 11 15 - - 0.0
28/01:30am 0.3 -4.9 0.2 99 0.0 WSW 17 24 9 13 - - 0.0
28/01:00am 0.1 -3.6 0.0 99 0.0 W 9 15 5 8 - - 0.0
28/12:30am 0.1 -3.6 0.0 99 0.0 W 9 13 5 7 - - 0.0
28/12:00am 0.3 -3.0 0.2 99 0.0 W 7 11 4 6 - - 0.0
 
Date/Time
EST
Temp
°C
App
Temp
°C
Dew
Point
Rel
Hum
%
Delta-T
°C
Wind Press
QNH
hPa
Press
MSL
hPa
Rain
since 9 am
mm
Dir
 
Spd
km/h
Gust
km/h
Spd
kts
Gust
kts
27/11:30pm 0.6 -3.0 0.5 99 0.0 WSW 9 13 5 7 - - 0.0
27/11:00pm 0.7 -3.7 0.6 99 0.0 W 13 22 7 12 - - 0.0
27/10:30pm 0.9 -4.2 0.8 99 0.0 WSW 17 26 9 14 - - 0.0
27/10:00pm 1.1 -4.5 1.0 99 0.0 WSW 20 33 11 18 - - 0.0
27/09:30pm 1.2 -3.8 1.1 99 0.0 W 17 24 9 13 - - 0.0
27/09:00pm 1.3 -3.7 1.2 99 0.0 W 17 24 9 13 - - 0.0
27/08:30pm 1.4 -3.6 1.3 99 0.0 W 17 28 9 15 - - 0.0
27/08:00pm 1.5 -4.1 1.4 99 0.0 W 20 32 11 17 - - 0.0
27/07:30pm 1.6 -3.4 1.5 99 0.0 W 17 24 9 13 - - 0.0
27/07:00pm 1.5 -2.7 1.4 99 0.0 W 13 19 7 10 - - 0.0
27/06:30pm 1.6 -2.2 1.5 99 0.0 W 11 15 6 8 - - 0.0
27/06:00pm 1.8 -2.4 1.7 99 0.0 WSW 13 20 7 11 - - 0.0
27/05:30pm 1.9 -2.3 1.8 99 0.0 WSW 13 20 7 11 - - 0.0
27/05:00pm 2.1 -3.4 2.0 99 0.0 WSW 20 28 11 15 - - 0.0
27/04:30pm 2.6 -1.2 1.9 95 0.3 SW 11 20 6 11 - - 0.0
27/04:00pm 3.0 -2.0 1.4 89 0.7 WSW 17 26 9 14 - - 0.0
27/03:30pm 3.0 -2.6 1.5 90 0.6 W 20 26 11 14 - - 0.0
27/03:00pm 2.8 -2.2 1.6 92 0.5 W 17 32 9 17 - - 0.0
27/02:30pm 2.7 -2.3 1.4 91 0.6 WSW 17 24 9 13 - - 0.0
27/02:00pm 2.6 -2.4 1.3 91 0.6 WSW 17 20 9 11 - - 0.0
27/01:30pm 2.7 -2.9 1.5 92 0.5 W 20 28 11 15 - - 0.0
27/01:00pm 2.9 -1.3 1.7 92 0.5 W 13 20 7 11 - - 0.0
27/12:30pm 2.6 -1.9 2.2 97 0.2 W 15 20 8 11 - - 0.0
27/12:00pm 2.7 -2.7 1.4 91 0.6 W 19 28 10 15 - - 0.0
27/11:30am 2.8 -1.8 1.3 90 0.6 W 15 20 8 11 - - 0.0
27/11:00am 2.1 -2.0 2.0 99 0.0 W 13 17 7 9 - - 0.0
27/10:30am 2.0 -1.8 1.9 99 0.0 WSW 11 15 6 8 - - 0.0
27/10:00am 1.9 -1.1 1.8 99 0.0 W 7 15 4 8 - - 0.0
27/09:30am 1.9 -1.9 1.8 99 0.0 W 11 15 6 8 - - 0.0
27/09:00am 1.6 -1.9 1.5 99 0.0 W 9 13 5 7 - - 3.6
27/08:30am 1.4 -2.5 1.3 99 0.0 WSW 11 13 6 7 - - 3.6
27/08:00am 1.7 -2.0 0.2 90 0.6 S 9 15 5 8 - - 3.6
27/07:30am 1.5 -3.2 0.6 94 0.4 SSW 15 19 8 10 - - 3.6
27/07:00am 1.4 -3.2 1.3 99 0.0 SW 15 28 8 15 - - 3.6
27/06:30am 1.3 -1.8 1.2 99 0.0 SW 7 19 4 10 - - 3.6
27/06:00am 1.3 -4.3 1.2 99 0.0 SW 20 30 11 16 - - 3.6
27/05:30am 1.3 -3.4 1.2 99 0.0 SW 15 20 8 11 - - 3.6
27/05:00am 1.4 -2.9 1.3 99 0.0 WSW 13 22 7 12 - - 3.6
27/04:30am 1.4 -3.6 1.3 99 0.0 WSW 17 20 9 11 - - 3.6
27/04:00am 1.4 -3.6 1.3 99 0.0 WSW 17 24 9 13 - - 3.6
27/03:30am 1.4 -4.0 1.3 99 0.0 WSW 19 26 10 14 - - 3.6
27/03:00am 1.7 -3.8 1.6 99 0.0 W 20 30 11 16 - - 3.6
27/02:30am 1.8 -3.1 1.7 99 0.0 SW 17 24 9 13 - - 3.6
27/02:00am 1.8 -3.5 1.7 99 0.0 WSW 19 28 10 15 - - 3.6
27/01:30am 1.8 -2.4 1.7 99 0.0 WSW 13 17 7 9 - - 3.6
27/01:00am 1.9 -3.0 1.8 99 0.0 WSW 17 24 9 13 - - 3.6
27/12:30am 1.8 -2.8 1.7 99 0.0 WSW 15 24 8 13 - - 3.6
27/12:00am 2.0 -2.2 1.9 99 0.0 W 13 19 7 10 - - 3.6
 
Date/Time
EST
Temp
°C
App
Temp
°C
Dew
Point
Rel
Hum
%
Delta-T
°C
Wind Press
QNH
hPa
Press
MSL
hPa
Rain
since 9 am
mm
Dir
 
Spd
km/h
Gust
km/h
Spd
kts
Gust
kts
26/11:30pm 1.9 -3.4 1.8 99 0.0 W 19 30 10 16 - - 3.4
26/11:00pm 2.0 -2.2 1.9 99 0.0 WSW 13 20 7 11 - - 3.2

Other Formats:

Comma delimited format used in spreadsheet applications
http://www.bom.gov.au/fwo/IDN60801/IDN60801.95916.axf

JavaScript Object Notation format (JSON) in row-major order
http://www.bom.gov.au/fwo/IDN60801/IDN60801.95916.json